Station Historical Data
Daily Summary for July 5, 2012 Units:  English    Metric   Both
« Previous Day
Next Day »
Daily Weekly Monthly Yearly Custom
  High: Low: Average:
Temperature: 96.9 °F 75.0 °F 84 °F
Dew Point: 76.5 °F 67.8 °F 71.3 °F
Humidity: 85% 41% 67%
Wind Speed: 12.0mph 0.0mph 3.4mph
Wind Gust: 18.0mph - -
Wind- - SW
Pressure: 29.98 in 29.85 in -
Precipitation: 0.05 in    
Historical Graphs
 
 
Tabular Data for July 5, 2012
Time Temperature Dew Point Pressure Wind Wind Speed Wind Gust Humidity Rainfall Rate (Hourly) Conditions
00:00 80.6 °F 70.3 °F 29.92 in SW 1.0 mph 1.0 mph 71% 0.00 in
00:01 80.5 °F 70.2 °F 29.92 in SW 1.0 mph 1.0 mph 71% 0.00 in
00:06 80.4 °F 70.6 °F 29.92 in SSW 1.0 mph 1.0 mph 72% 0.00 in
00:11 80.2 °F 70.4 °F 29.92 in SSE 1.0 mph 2.0 mph 72% 0.00 in
00:16 80.1 °F 70.7 °F 29.92 in SE 2.0 mph 2.0 mph 73% 0.00 in
00:21 79.8 °F 70.4 °F 29.92 in SE 2.0 mph 3.0 mph 73% 0.00 in
00:27 79.7 °F 70.7 °F 29.93 in SE 4.0 mph 5.0 mph 74% 0.00 in
00:32 79.5 °F 70.9 °F 29.93 in SE 3.0 mph 6.0 mph 75% 0.00 in
00:37 79.5 °F 70.5 °F 29.93 in SE 4.0 mph 6.0 mph 74% 0.00 in
00:42 79.5 °F 70.5 °F 29.93 in SE 3.0 mph 4.0 mph 74% 0.00 in
00:47 79.4 °F 70.8 °F 29.93 in SSE 2.0 mph 3.0 mph 75% 0.00 in
00:52 79.1 °F 70.5 °F 29.93 in SSW 1.0 mph 3.0 mph 75% 0.00 in
00:57 78.8 °F 70.6 °F 29.93 in SE 1.0 mph 2.0 mph 76% 0.00 in
01:02 78.5 °F 70.7 °F 29.93 in Calm   2.0 mph 77% 0.00 in
01:07 78.2 °F 70.8 °F 29.92 in Calm     78% 0.00 in
01:12 77.9 °F 70.5 °F 29.92 in Calm   1.0 mph 78% 0.00 in
01:17 77.6 °F 70.6 °F 29.92 in SW 1.0 mph 1.0 mph 79% 0.00 in
01:22 77.6 °F 70.6 °F 29.92 in Calm   1.0 mph 79% 0.00 in
01:27 77.4 °F 70.4 °F 29.92 in Calm     79% 0.00 in
01:32 77.2 °F 70.6 °F 29.92 in Calm     80% 0.00 in
01:37 77.2 °F 70.6 °F 29.92 in SSW 1.0 mph 1.0 mph 80% 0.00 in
01:42 77.3 °F 70.7 °F 29.91 in SW 1.0 mph 2.0 mph 80% 0.00 in
01:47 77.5 °F 71.2 °F 29.91 in SSW 1.0 mph 2.0 mph 81% 0.00 in
01:52 77.2 °F 70.9 °F 29.91 in SW 1.0 mph 1.0 mph 81% 0.00 in
01:57 77.0 °F 70.7 °F 29.92 in SSW 1.0 mph 2.0 mph 81% 0.00 in
02:02 76.8 °F 70.5 °F 29.92 in SSW 1.0 mph 2.0 mph 81% 0.00 in
02:07 76.9 °F 71.0 °F 29.92 in SW 3.0 mph 4.0 mph 82% 0.00 in
02:13 77.1 °F 70.8 °F 29.92 in SSW 1.0 mph 4.0 mph 81% 0.00 in
02:18 77.3 °F 71.0 °F 29.92 in South 2.0 mph 4.0 mph 81% 0.00 in
02:23 77.4 °F 70.8 °F 29.92 in SW 1.0 mph 3.0 mph 80% 0.00 in
02:28 77.6 °F 70.9 °F 29.92 in SW 1.0 mph 1.0 mph 80% 0.00 in
02:33 77.6 °F 70.9 °F 29.92 in Calm   2.0 mph 80% 0.00 in
02:38 77.5 °F 71.2 °F 29.92 in Calm   1.0 mph 81% 0.00 in
02:43 77.4 °F 71.1 °F 29.92 in SW 1.0 mph 2.0 mph 81% 0.00 in
02:48 77.5 °F 71.2 °F 29.92 in SW 3.0 mph 3.0 mph 81% 0.00 in
02:53 77.4 °F 71.5 °F 29.92 in SSW 2.0 mph 2.0 mph 82% 0.00 in
02:58 77.1 °F 71.2 °F 29.92 in SSW 1.0 mph 3.0 mph 82% 0.00 in
03:03 76.7 °F 71.2 °F 29.92 in SW 1.0 mph 1.0 mph 83% 0.00 in
03:08 76.4 °F 70.9 °F 29.92 in Calm   1.0 mph 83% 0.00 in
03:13 76.2 °F 70.7 °F 29.92 in SSW 1.0 mph 1.0 mph 83% 0.00 in
03:18 76.2 °F 71.0 °F 29.92 in South 3.0 mph 4.0 mph 84% 0.00 in
03:23 76.4 °F 71.2 °F 29.92 in SSW 3.0 mph 4.0 mph 84% 0.00 in
03:28 76.5 °F 71.0 °F 29.92 in SSW 1.0 mph 3.0 mph 83% 0.00 in
03:33 76.5 °F 71.0 °F 29.92 in South 1.0 mph 3.0 mph 83% 0.00 in
03:38 76.4 °F 70.9 °F 29.92 in SSW 1.0 mph 2.0 mph 83% 0.00 in
03:43 76.4 °F 70.5 °F 29.92 in SW 2.0 mph 3.0 mph 82% 0.00 in
03:48 76.4 °F 70.5 °F 29.92 in SW 1.0 mph 2.0 mph 82% 0.00 in
03:53 76.4 °F 70.5 °F 29.92 in WSW 2.0 mph 2.0 mph 82% 0.00 in
03:58 76.4 °F 70.5 °F 29.91 in WSW 1.0 mph 3.0 mph 82% 0.00 in
04:03 76.4 °F 70.5 °F 29.91 in SW 1.0 mph 2.0 mph 82% 0.00 in
04:08 76.3 °F 70.8 °F 29.91 in SW 2.0 mph 3.0 mph 83% 0.00 in
04:13 76.0 °F 70.5 °F 29.91 in WSW 2.0 mph 2.0 mph 83% 0.00 in
04:18 76.0 °F 70.8 °F 29.91 in Calm   3.0 mph 84% 0.00 in
04:23 76.0 °F 70.8 °F 29.91 in West 1.0 mph 3.0 mph 84% 0.00 in
04:28 76.0 °F 70.8 °F 29.91 in West 1.0 mph 2.0 mph 84% 0.00 in
04:33 75.9 °F 70.7 °F 29.91 in West 1.0 mph 2.0 mph 84% 0.00 in
04:38 75.9 °F 70.7 °F 29.91 in WSW 2.0 mph 3.0 mph 84% 0.00 in
04:44 75.8 °F 70.6 °F 29.91 in WSW 1.0 mph 2.0 mph 84% 0.00 in
04:49 75.7 °F 70.5 °F 29.91 in SW 2.0 mph 2.0 mph 84% 0.00 in
04:54 75.7 °F 70.5 °F 29.91 in WSW 1.0 mph 2.0 mph 84% 0.00 in
04:59 75.4 °F 70.6 °F 29.91 in WSW 1.0 mph 2.0 mph 85% 0.00 in
05:04 75.3 °F 70.5 °F 29.91 in WSW 1.0 mph 2.0 mph 85% 0.00 in
05:09 75.4 °F 70.6 °F 29.91 in West 1.0 mph 2.0 mph 85% 0.00 in
05:14 75.4 °F 70.6 °F 29.91 in West 1.0 mph 2.0 mph 85% 0.00 in
05:19 75.3 °F 70.1 °F 29.92 in West 1.0 mph 2.0 mph 84% 0.00 in
05:24 75.3 °F 70.1 °F 29.92 in WNW 1.0 mph 2.0 mph 84% 0.00 in
05:29 75.1 °F 70.3 °F 29.92 in WNW 2.0 mph 2.0 mph 85% 0.00 in
05:34 75.2 °F 70.4 °F 29.92 in West 3.0 mph 3.0 mph 85% 0.00 in
05:39 75.3 °F 70.1 °F 29.92 in WSW 1.0 mph 4.0 mph 84% 0.00 in
05:44 75.4 °F 70.2 °F 29.92 in West 3.0 mph 4.0 mph 84% 0.00 in
05:49 75.3 °F 70.1 °F 29.92 in West 3.0 mph 5.0 mph 84% 0.00 in
05:54 75.4 °F 70.2 °F 29.92 in WNW 4.0 mph 4.0 mph 84% 0.00 in
05:59 75.4 °F 70.2 °F 29.92 in WNW 1.0 mph 4.0 mph 84% 0.00 in
06:04 75.4 °F 70.2 °F 29.92 in WNW 4.0 mph 5.0 mph 84% 0.00 in
06:09 75.5 °F 70.0 °F 29.92 in West 3.0 mph 5.0 mph 83% 0.00 in
06:14 75.5 °F 70.0 °F 29.92 in WNW 2.0 mph 3.0 mph 83% 0.00 in
06:19 75.3 °F 70.1 °F 29.92 in West 4.0 mph 4.0 mph 84% 0.00 in
06:24 75.3 °F 70.1 °F 29.92 in West 4.0 mph 5.0 mph 84% 0.00 in
06:29 75.2 °F 70.0 °F 29.92 in WNW 4.0 mph 4.0 mph 84% 0.00 in
06:34 75.1 °F 69.9 °F 29.92 in West 3.0 mph 3.0 mph 84% 0.00 in
06:39 75.1 °F 69.9 °F 29.93 in West 2.0 mph 4.0 mph 84% 0.00 in
06:44 75.1 °F 69.9 °F 29.93 in West 3.0 mph 4.0 mph 84% 0.00 in
06:49 75.1 °F 69.9 °F 29.93 in WNW 2.0 mph 4.0 mph 84% 0.00 in
06:54 75.0 °F 69.8 °F 29.93 in West 3.0 mph 4.0 mph 84% 0.00 in
06:59 75.0 °F 69.8 °F 29.93 in West 2.0 mph 4.0 mph 84% 0.00 in
07:04 75.1 °F 69.9 °F 29.93 in West 1.0 mph 2.0 mph 84% 0.00 in
07:09 75.1 °F 69.9 °F 29.94 in West 1.0 mph 1.0 mph 84% 0.00 in
07:14 75.0 °F 69.8 °F 29.94 in WNW 2.0 mph 2.0 mph 84% 0.00 in
07:19 75.1 °F 69.9 °F 29.94 in WSW 3.0 mph 3.0 mph 84% 0.00 in
07:24 75.3 °F 70.1 °F 29.94 in WSW 1.0 mph 2.0 mph 84% 0.00 in
07:29 75.5 °F 70.0 °F 29.95 in West 3.0 mph 4.0 mph 83% 0.00 in
07:34 75.9 °F 70.0 °F 29.95 in West 2.0 mph 3.0 mph 82% 0.00 in
07:39 76.3 °F 70.1 °F 29.95 in West 1.0 mph 3.0 mph 81% 0.00 in
07:44 76.6 °F 70.0 °F 29.95 in WNW 4.0 mph 4.0 mph 80% 0.00 in
07:49 77.0 °F 70.0 °F 29.95 in NW 3.0 mph 6.0 mph 79% 0.00 in
07:54 77.2 °F 70.2 °F 29.95 in NW 2.0 mph 4.0 mph 79% 0.00 in
07:59 77.6 °F 70.2 °F 29.95 in NW 3.0 mph 5.0 mph 78% 0.00 in
08:05 78.1 °F 70.3 °F 29.95 in NW 4.0 mph 5.0 mph 77% 0.00 in
08:10 78.6 °F 70.4 °F 29.95 in NW 4.0 mph 6.0 mph 76% 0.00 in
08:15 79.1 °F 70.5 °F 29.96 in NW 2.0 mph 6.0 mph 75% 0.00 in
08:20 79.8 °F 70.8 °F 29.95 in NW 3.0 mph 6.0 mph 74% 0.00 in
08:25 80.6 °F 70.8 °F 29.96 in NNW 3.0 mph 7.0 mph 72% 0.00 in
08:30 81.2 °F 70.9 °F 29.96 in WNW 4.0 mph 8.0 mph 71% 0.00 in
08:35 81.8 °F 71.1 °F 29.96 in NW 3.0 mph 6.0 mph 70% 0.00 in
08:40 82.3 °F 71.1 °F 29.96 in NNW 4.0 mph 5.0 mph 69% 0.00 in
08:45 82.7 °F 71.5 °F 29.96 in WNW 4.0 mph 4.0 mph 69% 0.00 in
08:50 83.1 °F 71.9 °F 29.96 in NW 2.0 mph 5.0 mph 69% 0.00 in
08:55 83.4 °F 71.3 °F 29.97 in WNW 1.0 mph 6.0 mph 67% 0.00 in
09:00 83.8 °F 72.1 °F 29.97 in West 4.0 mph 6.0 mph 68% 0.00 in
09:05 84.1 °F 71.5 °F 29.97 in West 4.0 mph 7.0 mph 66% 0.00 in
09:10 84.3 °F 71.7 °F 29.97 in WNW 4.0 mph 6.0 mph 66% 0.00 in
09:15 84.6 °F 72.0 °F 29.97 in West 3.0 mph 7.0 mph 66% 0.00 in
09:20 84.7 °F 71.6 °F 29.97 in WNW 4.0 mph 8.0 mph 65% 0.00 in
09:25 85.0 °F 72.4 °F 29.98 in NW 5.0 mph 7.0 mph 66% 0.00 in
09:30 85.2 °F 72.1 °F 29.98 in North 7.0 mph 8.0 mph 65% 0.00 in
09:35 85.6 °F 72.5 °F 29.98 in WNW 2.0 mph 4.0 mph 65% 0.00 in
09:40 86.0 °F 72.4 °F 29.98 in West 6.0 mph 7.0 mph 64% 0.00 in
09:45 86.3 °F 72.2 °F 29.97 in WNW 4.0 mph 6.0 mph 63% 0.00 in
09:50 86.5 °F 72.4 °F 29.97 in WNW 4.0 mph 6.0 mph 63% 0.00 in
09:55 86.7 °F 72.6 °F 29.97 in WNW 3.0 mph 7.0 mph 63% 0.00 in
10:00 87.2 °F 72.6 °F 29.97 in NW 5.0 mph 9.0 mph 62% 0.00 in
10:05 87.5 °F 72.4 °F 29.97 in WNW 5.0 mph 8.0 mph 61% 0.00 in
10:10 87.9 °F 72.3 °F 29.97 in WNW 4.0 mph 6.0 mph 60% 0.00 in
10:15 88.1 °F 72.0 °F 29.97 in WNW 5.0 mph 9.0 mph 59% 0.00 in
10:20 88.2 °F 71.6 °F 29.97 in NNW 6.0 mph 8.0 mph 58% 0.00 in
10:25 88.7 °F 71.5 °F 29.97 in WNW 5.0 mph 8.0 mph 57% 0.00 in
10:30 88.9 °F 71.2 °F 29.97 in NW 5.0 mph 10.0 mph 56% 0.00 in
10:35 89.1 °F 71.9 °F 29.97 in WNW 4.0 mph 9.0 mph 57% 0.00 in
10:40 89.5 °F 71.2 °F 29.97 in West 2.0 mph 8.0 mph 55% 0.00 in
10:45 89.7 °F 70.9 °F 29.97 in WNW 7.0 mph 9.0 mph 54% 0.00 in
10:50 89.9 °F 70.5 °F 29.97 in NW 5.0 mph 9.0 mph 53% 0.00 in
10:55 90.4 °F 70.9 °F 29.96 in NNW 6.0 mph 10.0 mph 53% 0.00 in
11:00 90.9 °F 70.3 °F 29.96 in West 6.0 mph 10.0 mph 51% 0.00 in
11:05 90.9 °F 70.3 °F 29.96 in West 8.0 mph 9.0 mph 51% 0.00 in
11:10 90.9 °F 70.3 °F 29.96 in WNW 4.0 mph 11.0 mph 51% 0.00 in
11:15 90.9 °F 69.7 °F 29.96 in WNW 5.0 mph 9.0 mph 50% 0.00 in
11:20 90.9 °F 70.8 °F 29.96 in West 5.0 mph 10.0 mph 52% 0.00 in
11:25 91.6 °F 69.8 °F 29.96 in West 7.0 mph 9.0 mph 49% 0.00 in
11:30 91.7 °F 70.4 °F 29.96 in WNW 5.0 mph 7.0 mph 50% 0.00 in
11:35 91.8 °F 69.9 °F 29.96 in WNW 5.0 mph 8.0 mph 49% 0.00 in
11:40 92.1 °F 69.6 °F 29.95 in WNW 6.0 mph 10.0 mph 48% 0.00 in
11:45 92.4 °F 69.9 °F 29.95 in NW 6.0 mph 10.0 mph 48% 0.00 in
11:50 92.7 °F 70.2 °F 29.96 in WNW 7.0 mph 10.0 mph 48% 0.00 in
11:55 92.6 °F 70.7 °F 29.96 in WNW 5.0 mph 6.0 mph 49% 0.00 in
12:00 93.6 °F 70.3 °F 29.95 in WNW 6.0 mph 6.0 mph 47% 0.00 in
12:05 93.3 °F 69.4 °F 29.95 in SW 2.0 mph 8.0 mph 46% 0.00 in
12:10 93.7 °F 69.2 °F 29.95 in NNW 5.0 mph 6.0 mph 45% 0.00 in
12:15 93.6 °F 69.7 °F 29.95 in WNW 5.0 mph 8.0 mph 46% 0.00 in
12:20 93.5 °F 70.3 °F 29.95 in NNE 4.0 mph 8.0 mph 47% 0.00 in
12:26 93.7 °F 70.4 °F 29.95 in West 5.0 mph 7.0 mph 47% 0.00 in
12:31 94.0 °F 70.7 °F 29.95 in NW 5.0 mph 9.0 mph 47% 0.00 in
12:36 94.2 °F 69.6 °F 29.95 in East 3.0 mph 6.0 mph 45% 0.00 in
12:41 94.7 °F 69.4 °F 29.95 in WNW 11.0 mph 11.0 mph 44% 0.00 in
12:46 94.3 °F 70.4 °F 29.95 in WSW 5.0 mph 10.0 mph 46% 0.00 in
12:51 94.4 °F 69.8 °F 29.95 in NW 2.0 mph 6.0 mph 45% 0.00 in
12:56 95.0 °F 69.7 °F 29.95 in Calm   3.0 mph 44% 0.00 in
13:01 95.9 °F 68.4 °F 29.94 in ENE 4.0 mph 7.0 mph 41% 0.00 in
13:06 95.7 °F 68.9 °F 29.94 in Calm   5.0 mph 42% 0.00 in
13:11 96.0 °F 69.2 °F 29.94 in West 2.0 mph 5.0 mph 42% 0.00 in
13:16 95.1 °F 69.8 °F 29.94 in WNW 6.0 mph 7.0 mph 44% 0.00 in
13:21 94.5 °F 69.9 °F 29.94 in West 5.0 mph 6.0 mph 45% 0.00 in
13:26 95.2 °F 69.9 °F 29.93 in SE 2.0 mph 5.0 mph 44% 0.00 in
13:31 96.2 °F 69.4 °F 29.93 in SW 1.0 mph 5.0 mph 42% 0.00 in
13:36 96.9 °F 70.0 °F 29.93 in NW 6.0 mph 6.0 mph 42% 0.00 in
13:41 95.4 °F 70.1 °F 29.93 in WNW 7.0 mph 7.0 mph 44% 0.00 in
13:46 94.6 °F 70.6 °F 29.93 in West 4.0 mph 5.0 mph 46% 0.00 in
13:51 94.1 °F 70.2 °F 29.93 in WNW 3.0 mph 4.0 mph 46% 0.00 in
13:56 94.4 °F 69.8 °F 29.93 in NW 2.0 mph 6.0 mph 45% 0.00 in
14:01 95.7 °F 69.6 °F 29.93 in Calm   3.0 mph 43% 0.00 in
14:06 96.1 °F 69.3 °F 29.93 in West 4.0 mph 6.0 mph 42% 0.00 in
14:11 96.0 °F 68.5 °F 29.92 in NE 5.0 mph 6.0 mph 41% 0.00 in
14:16 96.5 °F 69.7 °F 29.92 in SW 3.0 mph 7.0 mph 42% 0.00 in
14:21 95.8 °F 69.7 °F 29.92 in SW 3.0 mph 6.0 mph 43% 0.00 in
14:27 95.3 °F 70.0 °F 29.92 in West 4.0 mph 5.0 mph 44% 0.00 in
14:32 94.5 °F 69.2 °F 29.92 in WNW 3.0 mph 6.0 mph 44% 0.00 in
14:37 93.7 °F 69.8 °F 29.92 in NW 2.0 mph 5.0 mph 46% 0.00 in
14:42 92.2 °F 70.9 °F 29.92 in Calm   2.0 mph 50% 0.27 in
14:47 91.4 °F 71.3 °F 29.92 in ENE 1.0 mph 2.0 mph 52% 0.10 in
14:52 90.1 °F 75.8 °F 29.92 in NE 4.0 mph 4.0 mph 63% 0.08 in
14:57 87.4 °F 74.7 °F 29.92 in East 3.0 mph 4.0 mph 66% 0.18 in
15:02 86.1 °F 75.2 °F 29.92 in ESE 6.0 mph 6.0 mph 70% 0.09 in
15:07 85.5 °F 73.3 °F 29.91 in ESE 4.0 mph 7.0 mph 67% 0.05 in
15:12 85.9 °F 73.7 °F 29.91 in ESE 4.0 mph 4.0 mph 67% 0.04 in
15:17 86.8 °F 74.5 °F 29.90 in ESE 2.0 mph 4.0 mph 67% 0.00 in
15:22 87.6 °F 74.4 °F 29.89 in ESE 2.0 mph 3.0 mph 65% 0.00 in
15:27 88.4 °F 76.5 °F 29.90 in Calm   2.0 mph 68% 0.00 in
15:32 89.9 °F 75.6 °F 29.90 in Calm   1.0 mph 63% 0.00 in
15:37 90.0 °F 74.3 °F 29.90 in NNW 4.0 mph 7.0 mph 60% 0.00 in
15:42 89.9 °F 75.6 °F 29.90 in WNW 1.0 mph 3.0 mph 63% 0.00 in
15:47 90.8 °F 70.2 °F 29.89 in SW 1.0 mph 3.0 mph 51% 0.00 in
15:52 92.4 °F 71.1 °F 29.89 in SSE 3.0 mph 4.0 mph 50% 0.00 in
15:57 93.6 °F 72.8 °F 29.89 in SE 4.0 mph 4.0 mph 51% 0.00 in
16:02 94.3 °F 73.4 °F 29.89 in SSW 4.0 mph 6.0 mph 51% 0.00 in
16:07 94.4 °F 73.5 °F 29.88 in SSW 4.0 mph 7.0 mph 51% 0.00 in
16:12 94.5 °F 74.2 °F 29.88 in SSW 6.0 mph 8.0 mph 52% 0.00 in
16:17 94.1 °F 73.8 °F 29.88 in South 7.0 mph 8.0 mph 52% 0.00 in
16:22 93.6 °F 72.8 °F 29.88 in SSE 10.0 mph 11.0 mph 51% 0.00 in
16:27 91.1 °F 72.7 °F 29.89 in South 12.0 mph 14.0 mph 55% 0.00 in
16:32 89.8 °F 70.9 °F 29.89 in SSW 11.0 mph 15.0 mph 54% 0.00 in
16:37 89.5 °F 70.7 °F 29.89 in South 9.0 mph 16.0 mph 54% 0.00 in
16:42 89.7 °F 71.4 °F 29.89 in SSW 7.0 mph 12.0 mph 55% 0.00 in
16:47 90.1 °F 71.8 °F 29.88 in SW 8.0 mph 8.0 mph 55% 0.00 in
16:52 90.6 °F 72.8 °F 29.88 in South 8.0 mph 10.0 mph 56% 0.00 in
16:57 91.4 °F 72.4 °F 29.88 in SW 10.0 mph 10.0 mph 54% 0.00 in
17:02 91.9 °F 72.9 °F 29.87 in SSW 11.0 mph 12.0 mph 54% 0.00 in
17:07 92.0 °F 72.4 °F 29.86 in WSW 6.0 mph 10.0 mph 53% 0.00 in
17:13 91.2 °F 72.2 °F 29.86 in SW 11.0 mph 14.0 mph 54% 0.00 in
17:17 90.5 °F 72.7 °F 29.86 in WSW 5.0 mph 11.0 mph 56% 0.00 in
17:23 90.3 °F 71.9 °F 29.87 in WSW 9.0 mph 12.0 mph 55% 0.00 in
17:28 90.2 °F 71.9 °F 29.87 in WSW 4.0 mph 8.0 mph 55% 0.00 in
17:33 90.1 °F 72.3 °F 29.87 in SW 3.0 mph 7.0 mph 56% 0.00 in
17:38 90.2 °F 71.9 °F 29.87 in SSW 5.0 mph 7.0 mph 55% 0.00 in
17:43 90.3 °F 71.9 °F 29.87 in SW 6.0 mph 6.0 mph 55% 0.00 in
17:48 90.1 °F 71.8 °F 29.87 in SW 6.0 mph 11.0 mph 55% 0.00 in
17:53 89.9 °F 71.0 °F 29.87 in SW 4.0 mph 6.0 mph 54% 0.00 in
17:58 89.6 °F 71.3 °F 29.87 in SW 3.0 mph 5.0 mph 55% 0.00 in
18:03 89.3 °F 71.0 °F 29.87 in WSW 4.0 mph 5.0 mph 55% 0.00 in
18:08 89.2 °F 71.5 °F 29.88 in West 1.0 mph 2.0 mph 56% 0.00 in
18:13 88.9 °F 71.7 °F 29.89 in NNW 4.0 mph 5.0 mph 57% 0.00 in
18:18 87.9 °F 72.8 °F 29.88 in NNW 4.0 mph 10.0 mph 61% 0.00 in
18:23 87.1 °F 73.0 °F 29.88 in NW 2.0 mph 3.0 mph 63% 0.00 in
18:28 86.7 °F 73.1 °F 29.88 in North 3.0 mph 5.0 mph 64% 0.00 in
18:33 86.3 °F 73.6 °F 29.87 in West 1.0 mph 6.0 mph 66% 0.00 in
18:38 85.8 °F 73.1 °F 29.87 in NNW 4.0 mph 5.0 mph 66% 0.00 in
18:43 85.6 °F 72.9 °F 29.88 in NNW 5.0 mph 8.0 mph 66% 0.00 in
18:48 85.2 °F 73.0 °F 29.88 in North 3.0 mph 4.0 mph 67% 0.00 in
18:53 84.7 °F 72.5 °F 29.88 in North 3.0 mph 4.0 mph 67% 0.00 in
18:58 84.2 °F 72.9 °F 29.88 in NNW 1.0 mph 3.0 mph 69% 0.00 in
19:03 83.9 °F 73.1 °F 29.88 in NNE 1.0 mph 2.0 mph 70% 0.00 in
19:08 83.7 °F 72.9 °F 29.88 in NNE 2.0 mph 2.0 mph 70% 0.00 in
19:13 83.5 °F 73.1 °F 29.88 in NE 1.0 mph 3.0 mph 71% 0.00 in
19:18 83.4 °F 73.0 °F 29.88 in NE 3.0 mph 3.0 mph 71% 0.00 in
19:23 83.4 °F 73.4 °F 29.87 in East 2.0 mph 3.0 mph 72% 0.00 in
19:28 83.1 °F 73.1 °F 29.87 in East 3.0 mph 4.0 mph 72% 0.00 in
19:33 83.0 °F 73.5 °F 29.87 in SE 2.0 mph 3.0 mph 73% 0.00 in
19:38 83.2 °F 72.8 °F 29.87 in South 2.0 mph 3.0 mph 71% 0.00 in
19:43 83.5 °F 73.5 °F 29.87 in Calm   2.0 mph 72% 0.00 in
19:48 83.6 °F 73.2 °F 29.87 in SSW 1.0 mph 3.0 mph 71% 0.00 in
19:53 83.9 °F 73.5 °F 29.87 in Calm     71% 0.00 in
19:58 84.3 °F 73.9 °F 29.87 in Calm     71% 0.00 in
20:03 85.0 °F 73.7 °F 29.86 in Calm   1.0 mph 69% 0.00 in
20:08 85.3 °F 74.0 °F 29.86 in WSW 1.0 mph 1.0 mph 69% 0.00 in
20:13 85.2 °F 73.9 °F 29.86 in SW 1.0 mph 2.0 mph 69% 0.00 in
20:18 85.3 °F 74.4 °F 29.86 in SSE 1.0 mph 2.0 mph 70% 0.00 in
20:23 85.4 °F 74.5 °F 29.86 in WSW 1.0 mph 2.0 mph 70% 0.00 in
20:28 85.3 °F 74.4 °F 29.85 in Calm   2.0 mph 70% 0.00 in
20:33 85.0 °F 74.6 °F 29.86 in WSW 1.0 mph 2.0 mph 71% 0.00 in
20:38 84.7 °F 74.3 °F 29.86 in West 2.0 mph 3.0 mph 71% 0.00 in
20:43 84.4 °F 74.4 °F 29.86 in WNW 1.0 mph 1.0 mph 72% 0.00 in
20:48 84.2 °F 74.6 °F 29.86 in WNW 1.0 mph 1.0 mph 73% 0.00 in
20:53 83.9 °F 74.3 °F 29.86 in Calm   1.0 mph 73% 0.00 in
20:58 83.6 °F 74.4 °F 29.86 in Calm   1.0 mph 74% 0.00 in
21:03 83.4 °F 74.7 °F 29.86 in North 2.0 mph 2.0 mph 75% 0.00 in
21:08 83.0 °F 74.3 °F 29.87 in NNE 2.0 mph 2.0 mph 75% 0.00 in
21:13 82.8 °F 74.5 °F 29.87 in NNE 2.0 mph 3.0 mph 76% 0.00 in
21:18 82.6 °F 74.3 °F 29.88 in NNE 1.0 mph 1.0 mph 76% 0.00 in
21:23 82.4 °F 74.1 °F 29.88 in NNE 1.0 mph 2.0 mph 76% 0.00 in
21:28 82.3 °F 74.4 °F 29.89 in NNE 2.0 mph 2.0 mph 77% 0.00 in
21:33 82.2 °F 74.3 °F 29.89 in NE 2.0 mph 3.0 mph 77% 0.00 in
21:38 82.2 °F 74.3 °F 29.89 in ENE 3.0 mph 3.0 mph 77% 0.00 in
21:43 82.2 °F 74.3 °F 29.90 in East 5.0 mph 5.0 mph 77% 0.00 in
21:48 82.0 °F 74.1 °F 29.90 in ENE 3.0 mph 5.0 mph 77% 0.00 in
21:53 82.0 °F 74.1 °F 29.90 in ENE 1.0 mph 3.0 mph 77% 0.00 in
21:59 81.9 °F 74.4 °F 29.90 in SE 1.0 mph 2.0 mph 78% 0.00 in
22:04 81.7 °F 73.8 °F 29.91 in NE 7.0 mph 10.0 mph 77% 0.00 in
22:09 82.6 °F 71.4 °F 29.92 in East 11.0 mph 18.0 mph 69% 0.00 in
22:14 83.8 °F 71.2 °F 29.92 in ENE 11.0 mph 11.0 mph 66% 0.00 in
22:19 84.3 °F 70.8 °F 29.93 in ENE 5.0 mph 13.0 mph 64% 0.00 in
22:24 84.3 °F 70.8 °F 29.93 in East 8.0 mph 14.0 mph 64% 0.00 in
22:29 84.0 °F 70.1 °F 29.93 in ENE 8.0 mph 11.0 mph 63% 0.00 in
22:34 83.6 °F 70.1 °F 29.94 in SE 12.0 mph 13.0 mph 64% 0.00 in
22:39 83.2 °F 69.3 °F 29.94 in East 9.0 mph 14.0 mph 63% 0.00 in
22:44 82.8 °F 69.4 °F 29.94 in ESE 11.0 mph 11.0 mph 64% 0.00 in
22:49 82.6 °F 69.2 °F 29.95 in ESE 8.0 mph 13.0 mph 64% 0.00 in
22:54 82.3 °F 68.9 °F 29.94 in SE 8.0 mph 13.0 mph 64% 0.00 in
22:59 82.1 °F 68.7 °F 29.94 in SE 7.0 mph 10.0 mph 64% 0.00 in
23:04 81.8 °F 68.9 °F 29.94 in ESE 4.0 mph 7.0 mph 65% 0.00 in
23:09 81.6 °F 68.2 °F 29.93 in ESE 8.0 mph 12.0 mph 64% 0.00 in
23:14 81.5 °F 68.2 °F 29.93 in SE 8.0 mph 11.0 mph 64% 0.00 in
23:19 81.6 °F 67.8 °F 29.94 in ESE 5.0 mph 8.0 mph 63% 0.00 in
23:24 81.4 °F 68.1 °F 29.94 in SE 5.0 mph 6.0 mph 64% 0.00 in
23:29 81.2 °F 67.9 °F 29.94 in SE 5.0 mph 5.0 mph 64% 0.00 in
23:34 81.2 °F 68.3 °F 29.96 in SE 6.0 mph 7.0 mph 65% 0.00 in
23:39 81.1 °F 68.2 °F 29.97 in ESE 6.0 mph 8.0 mph 65% 0.00 in
23:44 80.7 °F 68.3 °F 29.95 in SE 6.0 mph 8.0 mph 66% 0.00 in
23:49 80.5 °F 68.5 °F 29.94 in SSE 6.0 mph 13.0 mph 67% 0.00 in
23:54 80.2 °F 68.7 °F 29.94 in ESE 8.0 mph 13.0 mph 68% 0.00 in
23:59 79.9 °F 68.8 °F 29.93 in ESE 5.0 mph 11.0 mph 69% 0.00 in
Compliments of Weather Underground